Flag for Germany Weather past 2 weeks in Kaarst, North Rhine-Westphalia, Germany

Now
52 °F

Passing clouds.


Feels Like: 48 °F
Forecast: 47 / 52 °F
Wind: 12 mph from Southwest

Location: Monchengladbach Airport

Current Time: Mar 28, 2015 at 12:56:49 PM

Latest Report: Mar 28, 2015 at 12:20 PM


Visibility: N/A

Pressure: 30.04 "Hg

Humidity: 67%

Dew point: 41 °F

Location of KaarstLocation

Historic Weather in Kaarst — Graph

°F

Kaarst temperature yesterday

Maximum temperature yesterday: 50 °F (at 1:50 PM)
Minimum temperature yesterday: 43 °F (at 7:50 AM)
Average temperature yesterday: 47 °F

Past Weeks' High & Low Weather Summary

 TemperatureHumidityPressure
High64 °F (Mar 17, 3:20 PM)100% (Mar 15, 9:20 AM)30.39 "Hg (Mar 15, 9:20 AM)
Low32 °F (Mar 17, 7:20 AM)34% (Mar 17, 3:20 PM)29.68 "Hg (Mar 25, 7:50 AM)
Average46 °F77%30.12 "Hg
* Reported Mar 13 11:20 AM — Mar 28 11:50 AM, Kaarst, Weather by CustomWeather, © 2015

Note: Actual official high and low records may vary slightly from our data, if they occured in-between our weather recording intervals... More about our weather records

Advertising

Kaarst weather history for previous 24 hours

 ConditionsComfort  
Time TempWeatherWind HumidityBarometerVisibility
11:50 AM
Sat, Mar 28
54 °FPassing clouds.16 mph58%30.04 "HgN/A
11:20 AM54 °FPartly cloudy.13 mph54%30.04 "HgN/A
10:50 AM52 °FPassing clouds.9 mph62%30.07 "HgN/A
10:20 AM52 °FPassing clouds.7 mph62%30.07 "HgN/A
9:50 AM48 °FScattered clouds.9 mph71%30.09 "HgN/A
9:20 AM46 °FScattered clouds.7 mph76%30.09 "HgN/A
8:50 AM43 °FScattered clouds.5 mph93%30.12 "HgN/A
8:20 AM39 °FScattered clouds.5 mph100%30.12 "HgN/A
7:50 AM36 °FPartly sunny.5 mph100%30.12 "HgN/A
8:20 PM
Fri, Mar 27
43 °FClear.3 mph71%30.18 "Hg10 mi
7:50 PM45 °FClear.7 mph71%30.18 "Hg10 mi
7:20 PM46 °FClear.9 mph62%30.18 "Hg10 mi
6:50 PM46 °FClear.8 mph66%30.15 "Hg10 mi
6:20 PM48 °FClear.10 mph58%30.15 "Hg10 mi
5:50 PM48 °FClear.12 mph58%30.12 "Hg10 mi
5:20 PM48 °FPassing clouds.14 mph58%30.12 "HgN/A
4:50 PM48 °FPassing clouds.10 mph58%30.12 "HgN/A
4:20 PM50 °FPassing clouds.14 mph54%30.12 "HgN/A
3:50 PM50 °FPassing clouds.14 mph54%30.09 "HgN/A
3:20 PM50 °FPassing clouds.15 mph54%30.09 "HgN/A
2:50 PM50 °FPassing clouds.15 mph58%30.09 "HgN/A
2:20 PM50 °FPassing clouds.16 mph54%30.07 "HgN/A
1:50 PM50 °FPassing clouds.22 mph54%30.07 "HgN/A
1:20 PM48 °FPassing clouds.16 mph58%30.07 "HgN/A
12:50 PM48 °FPassing clouds.16 mph58%30.07 "HgN/A
12:20 PM48 °FPassing clouds.15 mph66%30.04 "HgN/A
Weather by CustomWeather, © 2015

See weather overviewHow to use our weather pages